Location: Most
(50.5133°N, 13.6207°E)
Time: 03:21:38
(UTC+02:00)

Nauka - Pass Details

Date: 21 September 2021
Orbit: 417 x 423 km, 51.6° (Epoch: 24 October)

Event Time Altitude Azimuth Distance (km) Brightness Sun altitude
Rises 20:01:43 0° 239° (WSW) 2,356 ? -9.7°
Reaches altitude 10° 20:03:49 10° 236° (SW) 1,496 ? -10.0°
Maximum altitude 20:07:07 57° 157° (SSE) 500 ? -10.5°
Enters shadow 20:09:44 15° 80° (E) 1,224 ? -10.9°
